Location: Etzleinsberg
(48.4833°N, 14.0333°E)
Time: 22:14:09
(UTC+00:00)

H-2A R/B - Pass Details

Date: 07 June 2020
Orbit: 577 x 655 km, 98.5° (Epoch: 07 July)

Event Time Altitude Azimuth Distance (km) Brightness Sun altitude
Rises 01:40:42 0° 149° (SSE) 2,928 5.3 -10.5°
Reaches altitude 10° 01:42:55 10° 143° (SE) 2,034 4.5 -10.2°
Maximum altitude 01:47:12 49° 69° (ENE) 840 3.2 -9.8°
Drops below altitude 10° 01:51:34 10° 355° (N) 2,075 5.5 -9.4°
Sets 01:53:51 0° 350° (N) 2,995 6.2 -9.1°
